Change the Weather History Date:

Saturday, November 9, 2013

  Actual Average Record
Temperature  
Mean Temperature 40 °F -  
Max Temperature 48 °F 41 °F 71 °F (1999)
Min Temperature 32 °F 27 °F 11 °F (1973)
Degree Days  
Heating Degree Days 25    
Moisture  
Dew Point 32 °F    
Average Humidity 68    
Maximum Humidity 81    
Minimum Humidity 53    
Precipitation  
Precipitation 0.00 in - - ()
Sea Level Pressure  
Sea Level Pressure 30.00 in    
Wind  
Wind Speed 17 mph (WNW)    
Max Wind Speed 26 mph    
Max Gust Speed 33 mph    
Visibility 10 miles    
Events      
Averages and records for this station are not official NWS values.
T = Trace of Precipitation, MM = Missing Value Source: NWS Daily Summary

Daily Weather History Graph

Daily Weather History Graph

Search for Another Location

Airport or City:

Trip Planner

Search our weather history database for the weather conditions in past years. The results will help you decide how hot, cold, wet, or windy it might be!

Date:

Astronomy

Nov. 09, 2013 Rise Set
Actual Time 7:04 AM CST 4:58 PM CST
Civil Twilight 6:33 AM CST 5:28 PM CST
Nautical Twilight 5:59 AM CST 6:03 PM CST
Astronomical Twilight 5:25 AM CST 6:36 PM CST
Moon 12:39 PM CST (11/9) 11:32 PM CST (11/9)
Length of Visible Light 10h 54m
Length of Day
9h 54m
Waxing Crescent, 44% of the Moon is Illuminated
Nov 9
Waxing Crescent
Nov 9
First Quarter
Nov 17
Full
Nov 25
Last Quarter
Dec 2
New

Hourly Weather History & Observations

Time (CST) Temp. Windchill Dew Point Humidity Pressure Visibility Wind Dir Wind Speed Gust Speed Precip Events Conditions
12:15 AM 44.6 °F 37.2 °F 37.4 °F 76% 29.72 in 10.0 mi West 17.3 mph 23.0 mph N/A   Overcast
12:35 AM 44.6 °F 36.9 °F 37.4 °F 76% 29.74 in 10.0 mi West 18.4 mph - N/A   Overcast
12:55 AM 44.6 °F 37.8 °F 37.4 °F 76% 29.74 in 10.0 mi West 15.0 mph - N/A   Overcast
1:15 AM 44.6 °F 38.1 °F 37.4 °F 76% 29.75 in 10.0 mi West 13.8 mph - N/A   Scattered Clouds
1:35 AM 42.8 °F 35.8 °F 37.4 °F 81% 29.75 in 10.0 mi West 13.8 mph - N/A   Clear
1:55 AM 42.8 °F 35.1 °F 35.6 °F 76% 29.75 in 10.0 mi West 16.1 mph 20.7 mph N/A   Clear
2:15 AM 42.8 °F 35.1 °F 35.6 °F 76% 29.76 in 10.0 mi West 16.1 mph - N/A   Clear
2:35 AM 42.8 °F 34.8 °F 35.6 °F 76% 29.76 in 10.0 mi West 17.3 mph - N/A   Clear
2:55 AM 42.8 °F 35.4 °F 35.6 °F 76% 29.77 in 10.0 mi West 15.0 mph - N/A   Clear
3:15 AM 42.8 °F 35.1 °F 35.6 °F 76% 29.76 in 10.0 mi West 16.1 mph - N/A   Clear
3:35 AM 42.8 °F 34.8 °F 33.8 °F 70% 29.77 in 10.0 mi West 17.3 mph - N/A   Clear
3:55 AM 42.8 °F 34.8 °F 33.8 °F 70% 29.77 in 10.0 mi West 17.3 mph - N/A   Clear
4:15 AM 41.0 °F 32.8 °F 33.8 °F 76% 29.78 in 10.0 mi West 16.1 mph - N/A   Clear
4:35 AM 41.0 °F 33.1 °F 33.8 °F 76% 29.79 in 10.0 mi West 15.0 mph - N/A   Clear
4:55 AM 41.0 °F 32.8 °F 33.8 °F 76% 29.80 in 10.0 mi West 16.1 mph - N/A   Partly Cloudy
5:15 AM 42.8 °F 35.1 °F 33.8 °F 70% 29.82 in 10.0 mi West 16.1 mph - N/A   Mostly Cloudy
5:35 AM 42.8 °F 35.1 °F 33.8 °F 70% 29.82 in 10.0 mi WNW 16.1 mph - N/A   Overcast
5:55 AM 42.8 °F 35.4 °F 33.8 °F 70% 29.83 in 10.0 mi WNW 15.0 mph 19.6 mph N/A   Overcast
6:15 AM 42.8 °F 35.4 °F 33.8 °F 70% 29.84 in 10.0 mi West 15.0 mph - N/A   Overcast
6:35 AM 42.8 °F 35.8 °F 33.8 °F 70% 29.86 in 10.0 mi West 13.8 mph - N/A   Overcast
6:55 AM 42.8 °F 35.4 °F 35.6 °F 76% 29.87 in 10.0 mi West 15.0 mph 21.9 mph N/A   Overcast
7:15 AM 42.8 °F 36.2 °F 33.8 °F 70% 29.88 in 10.0 mi West 12.7 mph 19.6 mph N/A   Mostly Cloudy
7:35 AM 42.8 °F 35.8 °F 35.6 °F 76% 29.90 in 10.0 mi West 13.8 mph - N/A   Mostly Cloudy
7:55 AM 42.8 °F 36.2 °F 35.6 °F 76% 29.91 in 10.0 mi West 12.7 mph 18.4 mph N/A   Overcast
8:15 AM 42.8 °F 35.4 °F 35.6 °F 76% 29.92 in 10.0 mi West 15.0 mph - N/A   Overcast
8:35 AM 42.8 °F 34.3 °F 35.6 °F 76% 29.92 in 10.0 mi WNW 19.6 mph - N/A   Mostly Cloudy
8:55 AM 44.6 °F 35.9 °F 35.6 °F 71% 29.94 in 10.0 mi WNW 23.0 mph 27.6 mph N/A   Scattered Clouds
9:15 AM 44.6 °F 35.9 °F 33.8 °F 66% 29.95 in 10.0 mi NW 23.0 mph 28.8 mph N/A   Mostly Cloudy
9:35 AM 44.6 °F 36.1 °F 35.6 °F 71% 29.96 in 10.0 mi NW 21.9 mph - N/A   Overcast
9:55 AM - - - N/A% 29.96 in 10.0 mi NW 26.5 mph 33.4 mph N/A   Mostly Cloudy
10:15 AM 46.4 °F 37.9 °F 33.8 °F 62% 29.98 in 10.0 mi WNW 25.3 mph 33.4 mph N/A   Mostly Cloudy
10:35 AM 46.4 °F 37.7 °F 33.8 °F 62% 29.99 in 10.0 mi NW 26.5 mph 32.2 mph N/A   Scattered Clouds
10:55 AM 46.4 °F 38.7 °F 33.8 °F 62% 30.00 in 10.0 mi NW 20.7 mph 25.3 mph N/A   Scattered Clouds
11:15 AM 46.4 °F 38.5 °F 33.8 °F 62% 30.01 in 10.0 mi NW 21.9 mph 27.6 mph N/A   Scattered Clouds
11:35 AM 48.2 °F - 33.8 °F 58% 30.01 in 10.0 mi WNW 24.2 mph 28.8 mph N/A   Mostly Cloudy
11:55 AM 46.4 °F 39.0 °F 33.8 °F 62% 30.01 in 10.0 mi NW 19.6 mph 24.2 mph N/A   Overcast
12:15 PM 46.4 °F 39.0 °F 33.8 °F 62% 30.02 in 10.0 mi WNW 19.6 mph - N/A   Mostly Cloudy
12:35 PM 46.4 °F 39.2 °F 33.8 °F 62% 30.03 in 10.0 mi NW 18.4 mph 23.0 mph N/A   Overcast
12:55 PM 44.6 °F 38.8 °F 33.8 °F 66% 30.03 in 10.0 mi WNW 11.5 mph 21.9 mph N/A   Overcast
1:15 PM 46.4 °F 39.2 °F 32.0 °F 57% 30.03 in 10.0 mi WNW 18.4 mph 27.6 mph N/A   Overcast
1:35 PM 46.4 °F 39.2 °F 33.8 °F 62% 30.03 in 10.0 mi NW 18.4 mph 23.0 mph N/A   Overcast
1:55 PM 46.4 °F 39.8 °F 33.8 °F 62% 30.04 in 10.0 mi WNW 16.1 mph - N/A   Overcast
2:15 PM 46.4 °F 38.5 °F 30.2 °F 53% 30.04 in 10.0 mi WNW 21.9 mph 27.6 mph N/A   Overcast
2:35 PM 46.4 °F 38.7 °F 30.2 °F 53% 30.05 in 10.0 mi WNW 20.7 mph 26.5 mph N/A   Mostly Cloudy
2:55 PM 46.4 °F 39.5 °F 30.2 °F 53% 30.06 in 10.0 mi WNW 17.3 mph 26.5 mph N/A   Mostly Cloudy
3:15 PM 46.4 °F 39.8 °F 32.0 °F 57% 30.06 in 10.0 mi WNW 16.1 mph 26.5 mph N/A   Mostly Cloudy
3:35 PM 46.4 °F 38.7 °F 32.0 °F 57% 30.08 in 10.0 mi NNW 20.7 mph 24.2 mph N/A   Overcast
3:55 PM 42.8 °F 36.2 °F 30.2 °F 61% 30.09 in 10.0 mi NNW 12.7 mph - N/A   Scattered Clouds
4:15 PM 42.8 °F 37.0 °F 30.2 °F 61% 30.10 in 10.0 mi NW 10.4 mph - N/A   Mostly Cloudy
4:35 PM 42.8 °F 37.5 °F 30.2 °F 61% 30.10 in 10.0 mi NW 9.2 mph - N/A   Scattered Clouds
4:55 PM 41.0 °F 35.8 °F 30.2 °F 65% 30.11 in 10.0 mi NW 8.1 mph - N/A   Partly Cloudy
5:15 PM 41.0 °F 34.3 °F 28.4 °F 61% 30.12 in 10.0 mi WNW 11.5 mph - N/A   Scattered Clouds
5:35 PM 41.0 °F 33.5 °F 28.4 °F 61% 30.13 in 10.0 mi NW 13.8 mph - N/A   Mostly Cloudy
5:55 PM 39.2 °F 31.6 °F 28.4 °F 65% 30.14 in 10.0 mi NW 12.7 mph - N/A   Mostly Cloudy
6:15 PM 39.2 °F 31.2 °F 28.4 °F 65% 30.16 in 10.0 mi NW 13.8 mph - N/A   Mostly Cloudy
6:35 PM 39.2 °F 31.2 °F 26.6 °F 61% 30.16 in 10.0 mi NW 13.8 mph - N/A   Partly Cloudy
6:55 PM 37.4 °F 30.3 °F 26.6 °F 65% 30.17 in 10.0 mi WNW 10.4 mph - N/A   Clear
7:15 PM 37.4 °F 29.8 °F 26.6 °F 65% 30.18 in 10.0 mi WNW 11.5 mph - N/A   Partly Cloudy
7:35 PM 37.4 °F 29.3 °F 26.6 °F 65% 30.19 in 10.0 mi WNW 12.7 mph - N/A   Partly Cloudy
7:55 PM 37.4 °F 28.9 °F 26.6 °F 65% 30.19 in 10.0 mi NW 13.8 mph 19.6 mph N/A   Clear
8:15 PM 37.4 °F 27.8 °F 26.6 °F 65% 30.21 in 10.0 mi NW 17.3 mph - N/A   Clear
8:35 PM 35.6 °F 24.5 °F 26.6 °F 70% 30.22 in 10.0 mi NW 20.7 mph 27.6 mph N/A   Clear
8:55 PM 35.6 °F 25.9 °F 24.8 °F 65% 30.23 in 10.0 mi NW 16.1 mph - N/A   Clear
9:15 PM 33.8 °F 23.5 °F 24.8 °F 70% 30.24 in 10.0 mi WNW 16.1 mph - N/A   Clear
9:35 PM 33.8 °F 23.9 °F 24.8 °F 70% 30.24 in 10.0 mi WNW 15.0 mph - N/A   Clear
9:55 PM 33.8 °F 23.9 °F 24.8 °F 70% 30.25 in 10.0 mi WNW 15.0 mph 20.7 mph N/A   Clear
10:15 PM 33.8 °F 23.9 °F 24.8 °F 70% 30.26 in 10.0 mi WNW 15.0 mph - N/A   Clear
10:35 PM 33.8 °F 23.5 °F 24.8 °F 70% 30.27 in 10.0 mi WNW 16.1 mph - N/A   Clear
10:55 PM 33.8 °F 23.5 °F 24.8 °F 70% 30.27 in 10.0 mi WNW 16.1 mph - N/A   Clear
11:15 PM 32.0 °F 21.6 °F 24.8 °F 75% 30.28 in 10.0 mi WNW 15.0 mph - N/A   Clear
11:35 PM 32.0 °F 21.6 °F 24.8 °F 75% 30.28 in 10.0 mi WNW 15.0 mph - N/A   Clear
11:55 PM 32.0 °F 21.2 °F 24.8 °F 75% 30.29 in 10.0 mi WNW 16.1 mph - N/A   Clear